User: anonymous   Login
Location: Newark
(25.0000°N, 73.5000°E)
Time: 10:48:32
(UTC+00:00)
Language:

Explorer 11/Cluster Stage 4 - Orbit

View from above orbital plane
View from above orbital plane
View from above satellite
View from above satellite

Ground track
Ground track

The orbit data is extracted from the following two-line orbital elements,

1 00107U 61013A   21059.68825339  .00000610  00000-0  59957-4 0  9996
2 00107  28.7901 174.1496 0546052 283.0703  70.9492 14.09145271  2405
Epoch (UTC): 28 February 2021 16:31:05
Eccentricity: 0.0546052
inclination: 28.7901°
perigee height: 467 km
apogee height: 1257 km
right ascension of ascending node: 174.1496°
argument of perigee: 283.0703°
revolutions per day: 14.09145271
mean anomaly at epoch: 70.9492°
orbit number at epoch: 240

The dashed part of the orbit path shows where the satellite is in the earth's shadow,  

DLR